CAPE
6 42 25 1 0 0 0 0 0 0 0 0 0 0 0 0 0 0 0 0 0 0 0 0 0 3 1551 1634 1704 2038 2184 2276 2045 1749 1628 1523 1548 1475 1331 1230 1189 1177 1302 1432
17 60 0 1 12 0 0 0 0 0 0 0 0 0 0 0 0 0 0 0 0 0 0 0 0 0 0 0 1132 1864 2178 2491 2587 2213 1962 1767 1675 1645 1599 1524 1407 1252 1290 1404
0 0 0 35 33 34 8 0 0 0 0 0 0 0 0 0 0 0 0 0 0 0 0 0 0 0 0 0 0 0 463 1569 2554 2460 2233 2057 1935 1911 1812 1726 1598 1470 1327 1300
0 0 0 2 28 19 14 0 0 1 0 0 0 0 0 0 0 0 0 0 0 0 0 0 0 0 0 0 0 0 0 4 596 2156 1693 2357 1957 2027 2314 2013 1770 1662 1465 1284
0 0 0 24 6 27 2 10 17 9 13 19 4 1 0 0 0 0 0 0 0 0 0 0 0 0 0 0 0 0 0 0 0 931 1787 2298 2132 2361 2086 1952 1918 2236 1698 1338
8 36 3 0 8 38 25 34 33 33 41 54 0 4 0 0 0 0 0 0 0 0 0 0 0 0 0 0 0 0 0 0 0 21 1622 2078 2303 2088 1811 2222 2177 1988 1675 1558
0 0 8 1 1 62 88 67 54 52 54 12 0 6 0 0 0 0 0 0 0 0 0 0 0 0 0 0 0 0 0 0 3 1 589 1533 1808 1747 1911 2005 2168 1899 2033 1356
39 8 1 20 10 0 32 52 10 10 6 0 0 0 0 0 0 0 0 0 0 0 0 0 0 0 0 0 0 0 0 33 89 697 1001 1410 1601 1724 1801 2050 2131 2073 1904 1513
17 24 0 0 0 0 2 59 8 4 0 11 0 0 0 0 0 0 0 0 0 0 0 0 0 0 0 0 0 0 0 1 356 1165 1624 1761 1964 2079 2148 2200 2305 2500 2128 1709
6 4 0 0 0 1 4 5 69 103 76 48 6 0 0 0 0 0 0 0 0 0 0 0 0 0 0 0 0 0 0 0 1 598 1387 1606 1824 1985 2191 2420 2428 2510 1934 1606
6 1 1 0 18 5 12 48 7 42 78 67 34 11 0 0 0 0 0 0 0 0 0 0 0 0 0 0 0 0 0 1 0 0 28 896 1467 1897 2231 2349 2217 2049 1559 1689
26 12 7 2 0 0 1 6 14 7 41 98 125 74 0 0 0 0 0 0 0 0 0 0 0 0 0 0 0 0 0 24 293 283 126 67 932 1714 2322 2468 2165 1725 1377 650
35 28 31 35 13 3 1 9 4 3 14 7 26 38 0 0 0 0 0 0 0 0 0 0 0 0 0 0 0 0 0 0 11 492 920 788 751 1465 1937 2063 1630 692 511 156
42 32 16 33 3 5 5 1 0 5 13 4 17 0 2 0 0 0 0 0 0 0 0 0 0 0 0 0 0 0 0 0 0 126 731 1294 1376 1588 1635 159 1 20 0 0
46 35 27 9 9 9 8 2 0 1 0 9 0 0 0 0 0 0 0 0 0 0 0 0 0 0 0 0 0 0 0 0 0 0 72 332 929 884 317 2 1 0 0 0
45 7 11 0 0 0 0 0 0 0 0 6 0 0 0 0 0 0 0 0 0 0 0 0 0 0 0 0 0 0 0 0 0 0 0 8 1 1 1 0 0 0 0 0
26 27 27 17 6 4 1 0 0 0 0 0 3 0 0 0 0 0 0 0 0 0 0 0 0 0 0 0 0 0 0 0 0 0 0 5 5 0 0 0 0 0 0 0
25 31 53 40 33 22 0 0 0 0 0 0 0 0 0 0 0 0 0 0 0 0 0 0 0 0 0 0 0 0 0 0 0 0 0 0 5 0 1 0 0 1 1 1
16 31 64 52 49 18 7 0 0 0 0 3 2 0 0 0 0 0 0 0 0 0 0 0 0 0 0 0 0 0 0 0 0 0 0 0 2 1 1 1 1 1 1 1
5 5 61 49 40 22 2 0 0 0 0 0 0 2 1 6 16 0 5 0 3 1 0 0 0 0 0 0 0 0 0 0 0 0 0 0 0 3 1 0 1 8 2 1
30 35 70 77 68 32 7 0 1 10 15 23 7 6 9 20 31 18 19 2 1 4 3 1 0 0 0 0 0 0 0 0 0 0 0 0 0 2 2 0 0 3 8 2
43 69 73 68 51 32 5 4 13 25 39 29 17 27 26 20 10 5 6 3 0 0 0 0 0 0 0 0 0 0 0 0 0 0 0 0 0 0 1 0 0 0 0 0
27 28 93 37 39 23 1 7 10 20 28 23 25 29 38 34 15 5 3 4 1 0 0 0 0 0 0 0 0 0 0 0 0 0 0 0 2 0 0 0 0 0 0 0
21 24 90 39 0 13 16 3 3 9 15 13 23 35 39 34 18 15 10 12 7 1 0 1 3 0 0 0 0 0 0 0 0 0 0 0 0 0 0 0 0 0 0 1
13 31 6 20 7 6 14 16 18 15 14 13 15 20 23 23 23 32 16 14 11 5 8 7 4 3 0 0 0 0 8 0 0 0 0 0 0 0 0 0 3 0 0 0
10 16 60 44 3 49 8 7 8 20 17 9 12 16 24 36 34 30 24 37 28 20 11 9 6 1 0 2 6 8 10 11 4 0 0 0 0 0 0 0 0 0 0 0
CIN
0 0 0 0 0 0 0 0 0 0 0 0 0 0 0 0 0 0 0 0 0 0 0 0 0 -1 -70 -55 -44 -70 -84 -130 -149 -175 -185 -178 -180 -188 -210 -208 -216 -196 -157 -104
0 0 0 0 0 0 0 0 0 0 0 0 0 0 0 0 0 0 0 0 0 0 0 0 0 0 0 0 -115 -79 -91 -103 -114 -119 -137 -135 -130 -147 -174 -195 -212 -226 -192 -147
0 0 0 0 0 0 0 0 0 0 0 0 0 0 0 0 0 0 0 0 0 0 0 0 0 0 0 0 0 0 -158 -101 -104 -138 -119 -115 -116 -119 -128 -174 -197 -222 -205 -179
0 0 0 0 0 0 0 0 0 0 0 0 0 0 0 0 0 0 0 0 0 0 0 0 0 0 0 0 0 0 0 -21 -171 -146 -178 -135 -169 -127 -136 -179 -183 -188 -214 -206
0 0 0 0 0 0 0 0 -1 0 0 0 0 0 0 0 0 0 0 0 0 0 0 0 0 0 0 0 0 0 0 0 0 -178 -211 -144 -173 -141 -150 -182 -169 -135 -195 -230
-11 -1 0 0 0 0 0 0 -1 0 0 0 0 0 0 0 0 0 0 0 0 0 0 0 0 0 0 0 0 0 0 0 0 -15 -204 -184 -166 -182 -161 -138 -152 -169 -206 -226
0 0 0 -1 0 0 0 0 0 0 0 0 0 0 0 0 0 0 0 0 0 0 0 0 0 0 0 0 0 0 0 0 -127 -223 -245 -220 -200 -212 -183 -170 -151 -176 -181 -305
0 0 0 0 -1 0 0 0 0 0 0 0 0 0 0 0 0 0 0 0 0 0 0 0 0 0 0 0 0 0 0 -198 -148 -135 -169 -187 -188 -180 -195 -160 -168 -176 -220 -309
0 -1 0 0 0 0 0 0 0 0 0 0 0 0 0 0 0 0 0 0 0 0 0 0 0 0 0 0 0 0 0 -121 -120 -95 -112 -122 -133 -134 -175 -177 -157 -137 -184 -267
0 0 0 0 0 -1 -2 -7 0 0 0 0 0 0 0 0 0 0 0 0 0 0 0 0 0 0 0 0 0 0 0 0 -133 -124 -82 -95 -110 -111 -115 -119 -148 -146 -214 -279
0 0 -1 0 0 0 -4 -18 -2 -4 -1 0 0 0 0 0 0 0 0 0 0 0 0 0 0 0 0 0 0 0 0 -232 0 0 -73 -121 -107 -111 -98 -106 -143 -172 -261 -213
0 0 0 -1 0 0 0 0 0 0 0 0 -1 0 0 0 0 0 0 0 0 0 0 0 0 0 0 0 0 0 0 -293 -158 -168 -227 -277 -141 -114 -90 -115 -162 -209 -274 -408
0 -1 0 0 0 0 0 0 0 0 0 0 0 -1 0 0 0 0 0 0 0 0 0 0 0 0 0 0 0 0 0 0 -175 -119 -93 -145 -165 -104 -91 -107 -177 -390 -408 -535
0 0 0 0 0 0 0 0 0 0 0 0 0 0 0 0 0 0 0 0 0 0 0 0 0 0 0 0 0 0 0 0 0 -175 -89 -56 -75 -69 -90 -292 -330 -459 0 0
0 0 0 0 0 0 0 0 0 0 0 0 0 0 0 0 0 0 0 0 0 0 0 0 0 0 0 0 0 0 0 0 0 0 -204 -159 -91 -98 -232 0 0 0 0 0
0 0 0 0 0 0 0 0 0 0 0 0 0 0 0 0 0 0 0 0 0 0 0 0 0 0 0 0 0 0 0 0 0 0 0 -249 0 0 0 0 0 0 0 0
0 0 0 0 0 0 0 0 0 0 0 0 0 0 0 0 0 0 0 0 0 0 0 0 0 0 0 0 0 0 0 0 0 0 0 0 0 0 0 0 0 0 0 0
0 0 0 0 0 0 0 0 0 0 0 0 0 0 0 0 0 0 0 0 0 0 0 0 0 0 0 0 0 0 0 0 0 0 0 0 0 0 0 0 0 0 0 0
0 0 0 0 0 0 0 0 0 0 0 0 0 0 0 0 0 0 0 0 0 0 0 0 0 0 0 0 0 0 0 0 0 0 0 0 0 0 0 0 0 0 0 0
0 0 0 0 0 0 0 0 0 0 0 0 0 0 0 0 0 0 0 0 0 -1 0 0 0 0 0 0 0 0 0 0 0 0 0 0 0 0 0 0 0 0 0 0
0 0 0 0 0 0 0 0 0 0 -4 0 0 0 0 0 0 0 0 0 0 0 0 0 0 0 0 0 0 0 0 0 0 0 0 0 0 0 0 0 0 0 0 0
0 0 0 0 0 0 -1 -1 0 0 0 0 0 0 0 0 0 0 0 0 0 0 0 0 0 0 0 0 0 0 0 0 0 0 0 0 0 0 0 0 0 0 0 0
0 0 0 0 0 0 0 0 0 0 0 0 0 0 0 0 0 0 0 0 0 0 0 0 0 0 0 0 0 0 0 0 0 0 0 0 -2 0 0 0 0 0 0 0
0 0 0 0 0 0 0 0 0 0 0 0 0 0 0 0 0 0 0 0 0 0 0 0 0 0 0 0 0 0 0 0 0 0 0 0 0 0 0 0 0 0 0 0
0 0 0 0 0 0 0 0 0 0 0 0 0 0 0 0 0 0 0 0 0 0 0 0 0 0 0 0 0 0 -40 0 0 0 0 0 0 0 0 0 0 0 0 0
0 0 0 0 0 0 0 0 0 0 0 0 0 0 0 0 0 0 0 0 0 0 0 0 0 0 0 0 0 0 0 0 0 0 0 0 0 0 0 0 0 0 0 0
Wind_Speed
20 17 20 29 26 22 19 16 18 19 13 13 21 20 20 18 16 15 16 15 16 19 16 15 10 11 14 16 17 17 17 18 15 14 14 13 14 13 13 13 17 17 16 18
17 25 31 23 21 21 22 17 16 12 7 9 14 17 14 16 17 19 20 20 18 16 17 17 13 12 12 15 17 18 19 19 17 14 13 13 13 12 12 13 15 17 19 18
26 24 24 23 24 22 23 24 17 12 11 12 9 17 21 22 22 20 20 21 19 19 19 17 17 14 12 14 15 16 19 19 18 18 13 12 12 11 12 14 14 17 19 19
22 26 9 27 28 24 26 25 20 19 15 16 13 18 18 19 20 21 23 23 21 19 18 16 17 17 15 13 13 16 16 17 18 19 17 19 16 15 14 14 13 14 19 20
15 12 23 18 29 26 24 16 17 18 19 16 21 14 20 21 23 25 22 17 14 13 13 17 17 18 18 16 14 11 13 15 16 18 19 16 18 14 11 12 15 15 16 20
15 7 7 25 16 17 18 14 14 13 13 17 25 18 21 20 27 19 16 11 9 9 13 16 15 15 15 14 12 12 13 15 15 18 21 21 20 18 14 14 12 13 13 14
16 14 11 4 14 17 17 18 8 10 13 20 18 17 25 4 11 8 6 4 6 5 5 10 10 10 12 14 14 13 14 16 16 18 20 22 22 20 19 17 13 15 12 12
9 12 14 6 11 19 26 22 11 18 15 18 20 14 17 12 12 3 9 18 11 16 9 8 8 9 8 8 9 11 13 14 14 16 18 18 20 14 14 16 13 13 13 13
6 4 3 3 7 4 21 25 24 21 16 10 14 18 23 22 18 19 15 11 10 8 6 8 7 8 10 9 9 8 11 12 12 14 14 16 16 18 16 18 15 12 13 11
6 7 4 2 4 8 8 10 18 14 18 23 17 21 12 7 10 8 7 6 5 5 4 6 7 8 7 7 6 6 9 11 11 13 13 13 16 17 17 14 17 15 11 15
8 2 3 6 5 7 4 7 4 4 13 9 15 18 5 9 10 7 5 8 7 6 6 6 7 8 9 8 8 7 7 8 9 11 14 15 15 16 16 14 16 14 12 14
6 6 6 7 5 5 4 4 6 4 4 8 13 13 8 10 10 9 5 8 9 8 8 7 7 7 9 10 10 9 7 7 7 9 11 13 15 15 16 16 15 13 13 11
7 2 6 8 5 5 5 3 3 4 2 4 3 4 10 5 5 6 10 12 10 10 9 8 8 8 8 10 10 10 10 10 9 9 9 10 13 15 14 13 11 12 13 12
6 4 5 9 10 8 9 7 5 3 4 5 8 17 16 15 14 10 13 15 10 10 9 9 9 9 9 10 10 10 10 11 11 9 10 10 10 11 7 8 11 12 12 14
3 6 10 13 15 14 15 15 15 16 17 11 20 22 21 16 17 18 15 14 12 10 11 11 11 11 11 11 11 10 11 11 11 11 8 8 8 9 10 12 12 10 11 12
5 6 10 16 16 14 17 21 21 20 20 20 24 25 28 21 17 16 14 11 11 14 14 15 14 14 13 11 10 11 12 12 11 11 10 7 4 5 7 7 9 10 11 11
5 5 6 13 11 11 14 17 18 21 20 18 20 22 25 24 19 19 18 16 16 16 17 16 15 14 13 12 11 12 12 12 11 10 9 9 8 4 5 7 8 10 12 12
10 9 8 9 11 12 9 7 10 13 16 17 20 21 24 22 21 20 16 17 17 16 15 15 13 12 13 14 15 14 14 13 11 10 9 7 9 6 3 6 7 6 9 12
16 12 7 6 10 16 20 14 12 14 19 12 15 18 21 21 18 19 18 15 15 14 9 9 13 17 16 15 15 16 15 14 13 11 9 9 9 7 6 5 6 4 5 4
7 13 9 5 8 10 1 5 2 6 16 13 6 12 15 16 13 11 12 17 16 9 9 13 15 14 18 16 14 16 16 14 14 12 11 10 9 9 8 7 9 4 8 6
4 6 14 13 12 11 9 11 11 12 8 9 12 18 22 20 18 23 23 25 23 20 18 18 17 16 16 17 16 17 16 16 14 12 12 10 10 8 8 8 6 10 10 11
11 6 6 8 9 13 3 6 15 13 18 20 26 26 26 25 26 25 22 22 22 22 23 22 19 18 18 16 16 18 18 13 13 13 11 12 11 5 8 10 9 10 11 11
16 16 13 13 11 16 19 22 23 23 24 24 25 23 23 24 26 27 24 23 21 22 21 20 18 17 17 17 17 18 17 13 11 7 10 12 7 8 10 11 10 10 11 12
14 15 14 18 17 20 20 24 24 25 24 22 23 23 24 26 26 28 24 21 21 20 20 19 19 18 18 17 19 18 17 15 11 11 10 6 7 8 9 8 9 10 11 12
14 17 20 23 25 25 22 19 19 22 24 24 26 26 25 26 26 26 23 22 21 20 19 18 18 18 21 20 18 18 15 12 14 13 7 8 7 10 9 8 10 10 10 12
16 21 15 18 22 21 25 25 25 24 24 23 22 24 24 26 27 27 23 20 20 19 19 19 21 22 23 21 20 20 19 16 13 10 8 9 8 8 8 9 7 6 9 12
Wind_Direction
196 201 215 214 216 234 243 247 234 234 214 248 232 242 234 228 236 245 246 234 238 241 242 225 211 225 226 220 217 214 210 205 199 202 202 206 209 207 210 214 211 208 209 209
192 218 217 225 223 228 239 232 240 239 211 238 248 245 235 232 240 243 245 246 240 239 240 237 226 213 208 221 223 218 219 212 209 207 211 213 213 212 213 212 211 210 206 205
212 222 223 219 226 223 225 229 222 236 186 232 260 257 247 243 244 236 238 244 249 241 241 240 243 236 231 221 219 224 225 222 212 218 216 212 217 217 211 215 212 211 210 206
231 234 205 215 220 216 225 222 242 242 240 247 215 268 255 240 231 233 235 237 241 246 248 250 256 254 248 248 233 226 226 227 223 211 219 213 212 208 213 214 212 210 206 208
205 227 241 221 220 215 235 232 215 238 240 252 248 257 254 249 247 241 238 230 240 244 249 247 244 250 254 252 240 230 230 227 227 212 216 213 217 222 214 213 218 210 201 207
267 319 291 229 221 229 223 229 212 220 237 240 240 246 263 246 247 248 250 248 242 242 239 252 255 252 251 249 250 244 237 235 226 223 213 220 219 220 217 215 209 204 203 203
214 238 241 284 243 199 196 189 180 208 215 236 235 229 244 106 1 269 334 313 302 189 237 259 245 246 250 241 240 236 235 238 224 219 219 218 221 221 223 219 211 209 202 197
234 204 204 173 231 221 211 195 210 212 217 233 215 237 230 228 281 298 318 230 254 234 284 252 259 292 276 273 269 254 247 237 225 217 219 221 224 221 222 222 215 217 204 200
332 204 53 83 325 331 206 223 224 255 265 268 246 224 250 268 271 277 278 274 319 349 334 309 321 322 301 284 274 255 259 253 237 220 220 222 221 221 219 222 216 213 209 194
6 285 51 354 216 257 234 278 218 226 233 240 237 232 239 133 98 79 63 37 31 36 23 20 20 9 351 336 316 294 265 256 247 234 227 227 223 224 221 216 215 209 193 190
339 322 322 277 33 16 339 236 248 287 227 222 227 234 272 316 296 245 26 14 16 10 20 25 14 11 11 2 352 349 312 280 266 250 240 233 230 224 219 214 216 207 184 193
12 318 311 357 356 287 36 6 20 326 81 225 248 248 96 84 75 60 28 357 356 349 353 357 359 9 5 1 358 357 343 321 296 280 266 248 238 229 219 214 206 191 181 170
336 63 297 157 174 141 44 29 33 333 315 258 277 239 142 85 356 357 338 340 335 337 342 347 356 355 357 353 353 352 350 340 321 296 275 256 243 231 224 213 187 169 172 173
257 280 293 306 328 313 294 276 255 150 262 270 254 269 266 291 298 287 310 320 318 313 318 330 333 336 340 342 337 337 344 342 330 311 297 273 252 242 202 151 165 166 177 173
354 282 298 293 299 297 287 278 267 250 240 259 271 276 276 284 291 304 297 290 287 291 304 315 319 324 322 333 329 332 331 337 335 318 306 293 261 224 189 175 173 164 168 171
5 282 302 288 282 280 276 266 264 265 260 258 261 270 278 286 286 277 283 282 284 292 295 303 308 313 312 321 322 323 319 329 332 321 307 288 256 216 178 163 160 155 155 154
273 269 271 278 288 304 281 263 262 264 263 255 261 269 276 283 285 283 286 287 284 279 287 295 301 302 302 306 309 309 311 315 322 318 309 295 267 213 176 163 159 160 166 161
246 249 256 281 297 263 252 317 292 289 274 258 256 266 277 279 282 284 287 283 278 274 275 284 292 302 301 299 299 304 303 304 308 316 306 280 263 224 189 168 170 169 167 163
231 237 256 257 257 276 284 275 264 245 272 300 294 283 286 292 308 292 281 279 275 274 282 294 302 298 299 295 296 297 294 293 298 304 305 284 264 227 188 180 151 146 146 160
228 221 240 248 271 276 332 324 325 327 286 271 270 314 312 317 299 300 347 338 320 276 287 295 302 287 294 291 296 294 286 286 288 297 303 294 263 242 191 168 166 200 148 121
197 218 237 248 257 262 283 279 275 258 261 328 326 318 308 297 296 301 304 296 289 279 282 288 292 283 276 281 285 285 284 275 283 284 292 289 259 229 187 162 158 154 152 137
285 266 240 236 254 267 315 264 238 272 306 310 307 302 296 293 294 292 290 286 287 279 278 280 282 278 274 272 277 277 277 282 278 275 284 285 257 177 160 158 150 148 147 144
272 268 275 281 274 303 305 298 288 285 287 292 293 295 293 290 289 291 290 289 283 282 280 279 275 270 265 265 262 269 276 279 271 252 276 276 250 158 157 155 154 152 157 156
266 263 260 271 269 272 285 290 291 290 290 292 287 290 291 289 288 288 286 283 281 279 279 279 275 269 265 255 258 264 269 273 253 247 255 222 164 160 160 160 166 165 165 162
272 288 275 274 278 280 274 282 298 300 296 297 293 291 288 285 283 286 284 279 277 277 278 276 270 267 267 266 261 258 253 256 252 255 190 199 184 178 161 171 175 181 184 174
267 268 267 272 282 293 290 294 295 296 292 291 296 296 293 288 285 283 282 280 279 280 277 273 271 271 270 267 264 257 254 239 242 240 187 183 177 174 163 156 123 112 139 127